Location: Czu?�w
(50.1404°N, 18.9919°E)
Time: 04:18:35
(UTC+00:00)

ATLAS 2AS CENTAUR R/B - Pass Details

Date: 27 October 2020
Orbit: 939 x 1273 km, 63.7° (Epoch: 23 November)

Event Time Altitude Azimuth Distance (km) Brightness Sun altitude
Rises 17:53:17 0° 315° (NW) 4,183 6.6 -23.7°
Reaches altitude 10° 17:56:12 10° 318° (NW) 3,180 5.8 -24.1°
Maximum altitude 18:03:47 63° 39° (NE) 1,282 2.9 -25.3°
Enters shadow 18:05:17 52° 87° (E) 1,390 2.9 -25.6°
